This demonstration page uses our WeatherBlox Daily Observations layout. Learn more.

Left ArrowRight Arrow

Hourly Observations for February 11, 2018

Temp ( °F °C ) Dew Point ( °F °C ) Humidity (%) Winds ( mph kmh ) Pressure ( in mb ) Visibility ( mi km ) Precip ( " mm )
12:47 am 00:47 Cloudy with Light Snow 10 -12.2 5 -15 80 80 NW 6 9 30.30 1026 3 4 0.00 0.03
12:54 am 00:54 Cloudy with Light Snow 9 -12.8 5 -15 84 84 NW 5 7 30.24 1024 3 5 0.00 0.03
1:54 am 01:54 Clear 7 -13.9 4 -15.6 87 87 Calm 30.22 1024 9 14 0.00 0.03
2:54 am 02:54 Partly Cloudy 5 -15 2 -16.7 87 87 SSW 3 6 30.21 1023 9 14 0.00 0.03
3:54 am 03:54 Clear 6 -14.4 3 -16.1 87 87 SW 3 6 30.19 1023 7 11 0.00 0.00
4:54 am 04:54 Clear 6 -14.4 2 -16.7 83 83 SW 3 6 30.19 1022 10 16 0.00 0.00
5:54 am 05:54 Clear 5 -15 1 -17.2 83 83 Calm 30.19 1022 10 16 0.00 0.00
6:54 am 06:54 Clear 3 -16.1 -1 -18.3 83 83 SSE 5 7 30.20 1023 10 16 0.00 0.00
7:54 am 07:54 Sunny 3 -16.1 -1 -18.3 83 83 Calm 30.21 1023 9 14 0.00 0.00
8:54 am 08:54 Sunny 3 -16.1 0 -17.8 87 87 S 6 9 30.24 1024 10 16 0.00 0.00
9:54 am 09:54 Sunny 8 -13.3 3 -16.1 80 80 SSW 6 9 30.23 1024 8 13 0.00 0.00
10:54 am 10:54 Sunny 12 -11.1 4 -15.6 70 70 SW 7 11 30.25 1024 10 16 0.00 0.00
11:54 am 11:54 Sunny 16 -8.9 5 -15 62 62 WSW 8 13 30.24 1024 10 16 0.00 0.00
12:54 pm 12:54 Sunny 19 -7.2 7 -13.9 59 59 WSW 3 6 30.23 1024 10 16 0.00 0.00
1:54 pm 13:54 Sunny 22 -5.6 9 -12.8 57 57 WSW 8 13 30.22 1024 10 16 0.00 0.00
2:54 pm 14:54 Sunny 22 -5.6 9 -12.8 57 57 WSW 7 11 30.23 1024 10 16 0.00 0.00
3:54 pm 15:54 Sunny 23 -5 9 -12.8 55 55 W 6 9 30.24 1024 10 16 0.00 0.00
4:54 pm 16:54 Sunny 23 -5 9 -12.8 55 55 W 5 7 30.28 1025 10 16 0.00 0.00
5:54 pm 17:54 Sunny 20 -6.7 7 -13.9 57 57 WSW 5 7 30.30 1026 10 16 0.00 0.00
6:54 pm 18:54 Clear 18 -7.8 8 -13.3 65 65 Calm 30.36 1028 10 16 0.00 0.00
7:54 pm 19:54 Clear 9 -12.8 3 -16.1 77 77 N 3 6 30.40 1029 10 16 0.00 0.00
8:54 pm 20:54 Clear 6 -14.4 2 -16.7 83 83 Calm 30.43 1031 10 16 0.00 0.00
9:54 pm 21:54 Clear 5 -15 1 -17.2 83 83 Calm 30.44 1031 10 16 0.00 0.00
10:54 pm 22:54 Clear 0 -17.8 -5 -20.6 79 79 N 6 9 30.48 1032 10 16 0.00 0.00
11:54 pm 23:54 Clear 1 -17.2 -3 -19.4 83 83 N 7 11 30.51 1033 10 16 0.00 0.00

Powered by AerisWeather